Location: Taukkyan
(23.1052°N, 94.0030°E)
Time: 11:46:04
(UTC+00:00)

USA 215 - Pass Details

Date: 06 July 2020
Orbit: 1102 x 1106 km, 123.0° (Epoch: 08 August)

Event Time Altitude Azimuth Distance (km) Brightness Sun altitude
Rises 14:57:32 0° 28° (NNE) 3,915 6.4 -28.2°
Reaches altitude 10° 15:00:09 10° 22° (NNE) 2,956 5.8 -28.6°
Maximum altitude 15:06:09 41° 315° (NW) 1,547 4.4 -29.5°
Drops below altitude 10° 15:12:10 10° 247° (WSW) 2,951 5.7 -30.5°
Sets 15:14:47 0° 240° (WSW) 3,908 6.3 -30.9°
